LUME 1 (43908 NORAD) Tracking and Keplerian Element Data

This shows tracking and keplerian element data for the satellite.

Feedback or suggestion? Click here.




ElementValue
Catalog43908
NameLUME 1
Epoch Orbit316
Epoch Day16.83079825
Epoch Year2019
RAAN286.1804
Inclination97.2998
Eccentricity0.0022108
Argument of Perigee166.4152
Mean Anonmoly193.7685
Mean Motion15.23992814
Decay Rate6.61E-06
L11 43908U 18111AJ 19016.83079825 .00000661 00000-0 30023-4 0 9990
L22 43908 97.2998 286.1804 0022108 166.4152 193.7685 15.23992814 3160

Live tracking and technical data element details for LUME 1 (NORAD 43908). LUME 1 can be tracked NOW for your location showing map with azimuth and elevation plus other details from your city location.

Track the satellite on the map from your city or location and see movement details for azimuth, elevation, latitude, longitude, range, height, and movement on the map or in text.







IsCatalogInMostPopularTable: catalog: 43908, numindb: 18
Update: records affected: 1



GetName: 43908 LUME 1

Hit Count: updated at: Thu, 17 Jan 2019 14:41:38 GMT